owner,sensor,date,latitude,longitude,vertical_datum,mass_concentration_of_oxygen_in_sea_water,qcFlag 
DISL,ioos:station:DISL:MHPA:1,2017-12-01T00:30:00Z,30.6671,-87.9365,1.388,11.59,1111122 
DISL,ioos:station:DISL:MHPA:1,2017-12-01T01:30:00Z,30.6671,-87.9365,1.419,11.85,1111122 
DISL,ioos:station:DISL:MHPA:1,2017-12-01T02:30:00Z,30.6671,-87.9365,1.427,10.2,1111122 
DISL,ioos:station:DISL:MHPA:1,2017-12-01T03:30:00Z,30.6671,-87.9365,1.433,8.6,1111122 
DISL,ioos:station:DISL:MHPA:1,2017-12-01T04:30:00Z,30.6671,-87.9365,1.387,9.03,1111122 
DISL,ioos:station:DISL:MHPA:1,2017-12-01T05:30:00Z,30.6671,-87.9365,1.344,8.88,1111122 
DISL,ioos:station:DISL:MHPA:1,2017-12-01T06:30:00Z,30.6671,-87.9365,1.285,9.09,1111122 
DISL,ioos:station:DISL:MHPA:1,2017-12-01T07:30:00Z,30.6671,-87.9365,1.211,9.03,1111122 
DISL,ioos:station:DISL:MHPA:1,2017-12-01T08:30:00Z,30.6671,-87.9365,1.118,7.55,1111122 
DISL,ioos:station:DISL:MHPA:1,2017-12-01T09:30:00Z,30.6671,-87.9365,1.031,7.67,1111122 
DISL,ioos:station:DISL:MHPA:1,2017-12-01T10:30:00Z,30.6671,-87.9365,0.993,7.73,1111122 
DISL,ioos:station:DISL:MHPA:1,2017-12-01T11:30:00Z,30.6671,-87.9365,0.965,7.03,1111122 
DISL,ioos:station:DISL:MHPA:1,2017-12-01T12:30:00Z,30.6671,-87.9365,0.94,7.21,1111122 
DISL,ioos:station:DISL:MHPA:1,2017-12-01T13:30:00Z,30.6671,-87.9365,0.941,6.86,1111122 
DISL,ioos:station:DISL:MHPA:1,2017-12-01T14:30:00Z,30.6671,-87.9365,0.926,7.23,1111122 
DISL,ioos:station:DISL:MHPA:1,2017-12-01T15:30:00Z,30.6671,-87.9365,0.975,6.93,1111122 
DISL,ioos:station:DISL:MHPA:1,2017-12-01T16:30:00Z,30.6671,-87.9365,1.029,7.15,1111122 
DISL,ioos:station:DISL:MHPA:1,2017-12-01T17:30:00Z,30.6671,-87.9365,1.114,8.02,1111122 
DISL,ioos:station:DISL:MHPA:1,2017-12-01T18:30:00Z,30.6671,-87.9365,1.161,8.98,1111122 
DISL,ioos:station:DISL:MHPA:1,2017-12-01T19:30:00Z,30.6671,-87.9365,1.188,11.72,1111122 
DISL,ioos:station:DISL:MHPA:1,2017-12-01T20:30:00Z,30.6671,-87.9365,1.19,10.09,1111122 
DISL,ioos:station:DISL:MHPA:1,2017-12-01T21:30:00Z,30.6671,-87.9365,1.19,11.41,1111122 
DISL,ioos:station:DISL:MHPA:1,2017-12-01T22:30:00Z,30.6671,-87.9365,1.207,10.97,1111122 
DISL,ioos:station:DISL:MHPA:1,2017-12-01T23:30:00Z,30.6671,-87.9365,1.258,10.43,1111122 
DISL,ioos:station:DISL:MHPA:1,2017-12-02T00:30:00Z,30.6671,-87.9365,1.308,10.21,1111122 
DISL,ioos:station:DISL:MHPA:1,2017-12-02T01:30:00Z,30.6671,-87.9365,1.35,9.53,1111122 
DISL,ioos:station:DISL:MHPA:1,2017-12-02T02:30:00Z,30.6671,-87.9365,1.397,9.37,1111122 
DISL,ioos:station:DISL:MHPA:1,2017-12-02T03:30:00Z,30.6671,-87.9365,1.422,8.73,1111122 
DISL,ioos:station:DISL:MHPA:1,2017-12-02T04:30:00Z,30.6671,-87.9365,1.427,8.48,1111122 
DISL,ioos:station:DISL:MHPA:1,2017-12-02T05:30:00Z,30.6671,-87.9365,1.387,9.11,1111122 
DISL,ioos:station:DISL:MHPA:1,2017-12-02T06:30:00Z,30.6671,-87.9365,1.336,9.3,1111122 
DISL,ioos:station:DISL:MHPA:1,2017-12-02T07:30:00Z,30.6671,-87.9365,1.258,8.86,1111122 
DISL,ioos:station:DISL:MHPA:1,2017-12-02T08:30:00Z,30.6671,-87.9365,1.183,7.75,1111122 
DISL,ioos:station:DISL:MHPA:1,2017-12-02T09:30:00Z,30.6671,-87.9365,1.11,7.14,1111122 
DISL,ioos:station:DISL:MHPA:1,2017-12-02T10:30:00Z,30.6671,-87.9365,1.034,6.39,1111122 
DISL,ioos:station:DISL:MHPA:1,2017-12-02T11:30:00Z,30.6671,-87.9365,0.986,6.03,1111122 
DISL,ioos:station:DISL:MHPA:1,2017-12-02T12:30:00Z,30.6671,-87.9365,0.945,5.41,1111122 
DISL,ioos:station:DISL:MHPA:1,2017-12-02T13:30:00Z,30.6671,-87.9365,0.92,5.52,1111122 
DISL,ioos:station:DISL:MHPA:1,2017-12-02T14:30:00Z,30.6671,-87.9365,0.898,6.55,1111122 
DISL,ioos:station:DISL:MHPA:1,2017-12-02T15:30:00Z,30.6671,-87.9365,0.907,6.49,1111122 
DISL,ioos:station:DISL:MHPA:1,2017-12-02T16:30:00Z,30.6671,-87.9365,0.933,7.21,1111122 
DISL,ioos:station:DISL:MHPA:1,2017-12-02T17:30:00Z,30.6671,-87.9365,0.981,7.94,1111122 
DISL,ioos:station:DISL:MHPA:1,2017-12-02T18:30:00Z,30.6671,-87.9365,1.034,9.73,1111122 
DISL,ioos:station:DISL:MHPA:1,2017-12-02T19:30:00Z,30.6671,-87.9365,1.067,10.22,1111122 
DISL,ioos:station:DISL:MHPA:1,2017-12-02T20:30:00Z,30.6671,-87.9365,1.144,10.22,1111122 
DISL,ioos:station:DISL:MHPA:1,2017-12-02T21:30:00Z,30.6671,-87.9365,1.211,10.3,1111122 
DISL,ioos:station:DISL:MHPA:1,2017-12-02T22:30:00Z,30.6671,-87.9365,1.258,9.26,1111122 
DISL,ioos:station:DISL:MHPA:1,2017-12-02T23:30:00Z,30.6671,-87.9365,1.294,9.09,1111122 
DISL,ioos:station:DISL:MHPA:1,2017-12-03T00:30:00Z,30.6671,-87.9365,1.382,9.22,1111122 
DISL,ioos:station:DISL:MHPA:1,2017-12-03T01:30:00Z,30.6671,-87.9365,1.445,11.13,1111122 
DISL,ioos:station:DISL:MHPA:1,2017-12-03T02:30:00Z,30.6671,-87.9365,1.473,9.36,1111122 
DISL,ioos:station:DISL:MHPA:1,2017-12-03T03:30:00Z,30.6671,-87.9365,1.492,9.37,1111122 
DISL,ioos:station:DISL:MHPA:1,2017-12-03T04:30:00Z,30.6671,-87.9365,1.514,8.23,1111122 
DISL,ioos:station:DISL:MHPA:1,2017-12-03T05:30:00Z,30.6671,-87.9365,1.492,9.51,1111122 
DISL,ioos:station:DISL:MHPA:1,2017-12-03T06:30:00Z,30.6671,-87.9365,1.429,8.71,1111122 
DISL,ioos:station:DISL:MHPA:1,2017-12-03T07:30:00Z,30.6671,-87.9365,1.357,7.58,1111122 
DISL,ioos:station:DISL:MHPA:1,2017-12-03T08:30:00Z,30.6671,-87.9365,1.237,7.52,1111122 
DISL,ioos:station:DISL:MHPA:1,2017-12-03T09:30:00Z,30.6671,-87.9365,1.136,8.09,1111122 
DISL,ioos:station:DISL:MHPA:1,2017-12-03T10:30:00Z,30.6671,-87.9365,1.055,7.69,1111122 
DISL,ioos:station:DISL:MHPA:1,2017-12-03T11:30:00Z,30.6671,-87.9365,0.981,6.95,1111122 
DISL,ioos:station:DISL:MHPA:1,2017-12-03T12:30:00Z,30.6671,-87.9365,0.924,6.47,1111122 
DISL,ioos:station:DISL:MHPA:1,2017-12-03T13:30:00Z,30.6671,-87.9365,0.887,5.23,1111122 
DISL,ioos:station:DISL:MHPA:1,2017-12-03T14:30:00Z,30.6671,-87.9365,0.861,5.74,1111122 
DISL,ioos:station:DISL:MHPA:1,2017-12-03T15:30:00Z,30.6671,-87.9365,0.833,5.89,1111122 
DISL,ioos:station:DISL:MHPA:1,2017-12-03T16:30:00Z,30.6671,-87.9365,0.847,6.72,1111122 
DISL,ioos:station:DISL:MHPA:1,2017-12-03T17:30:00Z,30.6671,-87.9365,0.875,7.59,1111122 
DISL,ioos:station:DISL:MHPA:1,2017-12-03T18:30:00Z,30.6671,-87.9365,0.975,7.64,1111122 
DISL,ioos:station:DISL:MHPA:1,2017-12-03T19:30:00Z,30.6671,-87.9365,1.058,6.11,1111122 
DISL,ioos:station:DISL:MHPA:1,2017-12-03T20:30:00Z,30.6671,-87.9365,1.13,7.83,1111122 
DISL,ioos:station:DISL:MHPA:1,2017-12-03T21:30:00Z,30.6671,-87.9365,1.221,7.41,1111122 
DISL,ioos:station:DISL:MHPA:1,2017-12-03T22:30:00Z,30.6671,-87.9365,1.257,9.92,1111122 
DISL,ioos:station:DISL:MHPA:1,2017-12-03T23:30:00Z,30.6671,-87.9365,1.318,10.08,1111122 
DISL,ioos:station:DISL:MHPA:1,2017-12-04T00:30:00Z,30.6671,-87.9365,1.378,9.8,1111122 
DISL,ioos:station:DISL:MHPA:1,2017-12-04T01:30:00Z,30.6671,-87.9365,1.463,9.35,1111122 
DISL,ioos:station:DISL:MHPA:1,2017-12-04T02:00:00Z,30.6671,-87.9365,1.495,8.85,1111122 
DISL,ioos:station:DISL:MHPA:1,2017-12-04T03:30:00Z,30.6671,-87.9365,1.567,8.41,1111122 
DISL,ioos:station:DISL:MHPA:1,2017-12-04T04:30:00Z,30.6671,-87.9365,1.578,9.61,1111122 
DISL,ioos:station:DISL:MHPA:1,2017-12-04T05:30:00Z,30.6671,-87.9365,1.584,8.54,1111122 
DISL,ioos:station:DISL:MHPA:1,2017-12-04T06:30:00Z,30.6671,-87.9365,1.539,9.24,1111122 
DISL,ioos:station:DISL:MHPA:1,2017-12-04T07:30:00Z,30.6671,-87.9365,1.444,7.59,1111122 
DISL,ioos:station:DISL:MHPA:1,2017-12-04T08:30:00Z,30.6671,-87.9365,1.371,6.59,1111122 
DISL,ioos:station:DISL:MHPA:1,2017-12-04T09:30:00Z,30.6671,-87.9365,1.275,6.2,1111122 
DISL,ioos:station:DISL:MHPA:1,2017-12-04T10:30:00Z,30.6671,-87.9365,1.181,5.97,1111122 
DISL,ioos:station:DISL:MHPA:1,2017-12-04T11:30:00Z,30.6671,-87.9365,1.114,5.78,1111122 
DISL,ioos:station:DISL:MHPA:1,2017-12-04T12:30:00Z,30.6671,-87.9365,1.05,6.31,1111122 
DISL,ioos:station:DISL:MHPA:1,2017-12-04T13:30:00Z,30.6671,-87.9365,0.979,5.63,1111122 
DISL,ioos:station:DISL:MHPA:1,2017-12-04T14:30:00Z,30.6671,-87.9365,0.935,6.34,1111122 
DISL,ioos:station:DISL:MHPA:1,2017-12-04T15:30:00Z,30.6671,-87.9365,0.916,8.08,1111122 
DISL,ioos:station:DISL:MHPA:1,2017-12-04T16:30:00Z,30.6671,-87.9365,0.893,8.97,1111122 
DISL,ioos:station:DISL:MHPA:1,2017-12-04T17:30:00Z,30.6671,-87.9365,0.888,9.68,1111122 
DISL,ioos:station:DISL:MHPA:1,2017-12-04T18:30:00Z,30.6671,-87.9365,0.909,12.66,1111122 
DISL,ioos:station:DISL:MHPA:1,2017-12-04T19:30:00Z,30.6671,-87.9365,0.989,14.63,1111122 
DISL,ioos:station:DISL:MHPA:1,2017-12-04T20:30:00Z,30.6671,-87.9365,1.062,17.03,1111122 
DISL,ioos:station:DISL:MHPA:1,2017-12-04T21:30:00Z,30.6671,-87.9365,1.135,11.93,1111122 
DISL,ioos:station:DISL:MHPA:1,2017-12-04T22:30:00Z,30.6671,-87.9365,1.189,12.49,1111122 
DISL,ioos:station:DISL:MHPA:1,2017-12-04T23:30:00Z,30.6671,-87.9365,1.242,11.99,1111122 
DISL,ioos:station:DISL:MHPA:1,2017-12-05T00:30:00Z,30.6671,-87.9365,1.349,11.62,1111122 
DISL,ioos:station:DISL:MHPA:1,2017-12-05T01:30:00Z,30.6671,-87.9365,1.41,12.13,1111122 
DISL,ioos:station:DISL:MHPA:1,2017-12-05T02:30:00Z,30.6671,-87.9365,1.508,11.25,1111122 
DISL,ioos:station:DISL:MHPA:1,2017-12-05T03:30:00Z,30.6671,-87.9365,1.587,9.99,1111122 
DISL,ioos:station:DISL:MHPA:1,2017-12-05T04:30:00Z,30.6671,-87.9365,1.654,8.84,1111122 
DISL,ioos:station:DISL:MHPA:1,2017-12-05T05:30:00Z,30.6671,-87.9365,1.675,7.44,1111122 
DISL,ioos:station:DISL:MHPA:1,2017-12-05T06:30:00Z,30.6671,-87.9365,1.675,7.26,1111122 
DISL,ioos:station:DISL:MHPA:1,2017-12-05T07:30:00Z,30.6671,-87.9365,1.649,6.5,1111122 
DISL,ioos:station:DISL:MHPA:1,2017-12-05T08:30:00Z,30.6671,-87.9365,1.578,5.68,1111122 
DISL,ioos:station:DISL:MHPA:1,2017-12-05T09:30:00Z,30.6671,-87.9365,1.475,5.27,1111122 
DISL,ioos:station:DISL:MHPA:1,2017-12-05T10:30:00Z,30.6671,-87.9365,1.38,4.91,1111122 
DISL,ioos:station:DISL:MHPA:1,2017-12-05T11:30:00Z,30.6671,-87.9365,1.292,4.23,1111122 
DISL,ioos:station:DISL:MHPA:1,2017-12-05T12:30:00Z,30.6671,-87.9365,1.21,3.6,1111122 
DISL,ioos:station:DISL:MHPA:1,2017-12-05T13:30:00Z,30.6671,-87.9365,1.136,3.98,1111122 
DISL,ioos:station:DISL:MHPA:1,2017-12-05T14:30:00Z,30.6671,-87.9365,1.082,5.3,1111122 
DISL,ioos:station:DISL:MHPA:1,2017-12-05T15:30:00Z,30.6671,-87.9365,1.038,6.62,1111122 
DISL,ioos:station:DISL:MHPA:1,2017-12-05T16:30:00Z,30.6671,-87.9365,0.99,7.27,1111122 
DISL,ioos:station:DISL:MHPA:1,2017-12-05T17:30:00Z,30.6671,-87.9365,0.965,7.37,1111122 
DISL,ioos:station:DISL:MHPA:1,2017-12-05T18:30:00Z,30.6671,-87.9365,0.925,8.13,1111122 
DISL,ioos:station:DISL:MHPA:1,2017-12-05T19:30:00Z,30.6671,-87.9365,0.919,7.25,1111122 
DISL,ioos:station:DISL:MHPA:1,2017-12-05T20:30:00Z,30.6671,-87.9365,0.943,9.11,1111122 
DISL,ioos:station:DISL:MHPA:1,2017-12-05T21:30:00Z,30.6671,-87.9365,1.037,9.56,1111122 
DISL,ioos:station:DISL:MHPA:1,2017-12-05T22:30:00Z,30.6671,-87.9365,1.095,9.76,1111122 
DISL,ioos:station:DISL:MHPA:1,2017-12-05T23:30:00Z,30.6671,-87.9365,1.172,9.84,1111122 
DISL,ioos:station:DISL:MHPA:1,2017-12-06T00:30:00Z,30.6671,-87.9365,1.238,10.36,1111122 
DISL,ioos:station:DISL:MHPA:1,2017-12-06T01:30:00Z,30.6671,-87.9365,1.292,8.82,1111122 
DISL,ioos:station:DISL:MHPA:1,2017-12-06T02:30:00Z,30.6671,-87.9365,1.344,8.2,1111122 
DISL,ioos:station:DISL:MHPA:1,2017-12-06T03:30:00Z,30.6671,-87.9365,1.366,8.88,1111122 
DISL,ioos:station:DISL:MHPA:1,2017-12-06T04:30:00Z,30.6671,-87.9365,1.419,7.92,1111122 
DISL,ioos:station:DISL:MHPA:1,2017-12-06T05:30:00Z,30.6671,-87.9365,1.392,8.08,1111122 
DISL,ioos:station:DISL:MHPA:1,2017-12-06T06:30:00Z,30.6671,-87.9365,1.316,7.83,1111122 
DISL,ioos:station:DISL:MHPA:1,2017-12-06T07:30:00Z,30.6671,-87.9365,1.303,7.28,1111122 
DISL,ioos:station:DISL:MHPA:1,2017-12-06T08:30:00Z,30.6671,-87.9365,1.29,7.27,1111122 
DISL,ioos:station:DISL:MHPA:1,2017-12-06T09:30:00Z,30.6671,-87.9365,1.2,6.74,1111122 
DISL,ioos:station:DISL:MHPA:1,2017-12-06T10:30:00Z,30.6671,-87.9365,1.13,4.33,1111122 
DISL,ioos:station:DISL:MHPA:1,2017-12-06T11:30:00Z,30.6671,-87.9365,1.059,5.16,1111122 
DISL,ioos:station:DISL:MHPA:1,2017-12-06T12:30:00Z,30.6671,-87.9365,0.997,5.27,1111122 
DISL,ioos:station:DISL:MHPA:1,2017-12-06T13:30:00Z,30.6671,-87.9365,0.969,4.61,1111122 
DISL,ioos:station:DISL:MHPA:1,2017-12-06T14:30:00Z,30.6671,-87.9365,0.907,6.66,1111122 
DISL,ioos:station:DISL:MHPA:1,2017-12-06T15:30:00Z,30.6671,-87.9365,0.83,2.72,1111122 
DISL,ioos:station:DISL:MHPA:1,2017-12-06T16:30:00Z,30.6671,-87.9365,0.75,4.81,1111122 
DISL,ioos:station:DISL:MHPA:1,2017-12-06T17:30:00Z,30.6671,-87.9365,0.699,5.06,1111122 
DISL,ioos:station:DISL:MHPA:1,2017-12-06T18:30:00Z,30.6671,-87.9365,0.687,7.27,1111122 
DISL,ioos:station:DISL:MHPA:1,2017-12-06T19:30:00Z,30.6671,-87.9365,0.654,5.79,1111122 
DISL,ioos:station:DISL:MHPA:1,2017-12-06T20:30:00Z,30.6671,-87.9365,0.645,4.78,1111122 
DISL,ioos:station:DISL:MHPA:1,2017-12-06T21:30:00Z,30.6671,-87.9365,0.662,5.42,1111122 
DISL,ioos:station:DISL:MHPA:1,2017-12-06T22:30:00Z,30.6671,-87.9365,0.699,5.32,1111122 
DISL,ioos:station:DISL:MHPA:1,2017-12-06T23:30:00Z,30.6671,-87.9365,0.833,4.84,1111122 
DISL,ioos:station:DISL:MHPA:1,2017-12-07T00:30:00Z,30.6671,-87.9365,0.933,5.17,1111122 
DISL,ioos:station:DISL:MHPA:1,2017-12-07T01:30:00Z,30.6671,-87.9365,0.98,4.29,1111122 
DISL,ioos:station:DISL:MHPA:1,2017-12-07T02:30:00Z,30.6671,-87.9365,1.065,7.1,1111122 
DISL,ioos:station:DISL:MHPA:1,2017-12-07T03:30:00Z,30.6671,-87.9365,1.155,6.04,1111122 
DISL,ioos:station:DISL:MHPA:1,2017-12-07T04:30:00Z,30.6671,-87.9365,1.187,6.33,1111122 
DISL,ioos:station:DISL:MHPA:1,2017-12-07T05:30:00Z,30.6671,-87.9365,1.354,6.49,1111122 
DISL,ioos:station:DISL:MHPA:1,2017-12-07T06:30:00Z,30.6671,-87.9365,1.427,6.44,1111122 
DISL,ioos:station:DISL:MHPA:1,2017-12-07T07:30:00Z,30.6671,-87.9365,1.465,4.93,1111122 
DISL,ioos:station:DISL:MHPA:1,2017-12-07T08:30:00Z,30.6671,-87.9365,1.458,5.87,1111122 
DISL,ioos:station:DISL:MHPA:1,2017-12-07T09:30:00Z,30.6671,-87.9365,1.461,6.36,1111122 
DISL,ioos:station:DISL:MHPA:1,2017-12-07T10:30:00Z,30.6671,-87.9365,1.372,6.14,1111122 
DISL,ioos:station:DISL:MHPA:1,2017-12-07T11:30:00Z,30.6671,-87.9365,1.327,5.53,1111122 
DISL,ioos:station:DISL:MHPA:1,2017-12-07T12:30:00Z,30.6671,-87.9365,1.256,5.22,1111122 
DISL,ioos:station:DISL:MHPA:1,2017-12-07T13:30:00Z,30.6671,-87.9365,1.169,6.41,1111122 
DISL,ioos:station:DISL:MHPA:1,2017-12-07T14:30:00Z,30.6671,-87.9365,1.117,5.08,1111122 
DISL,ioos:station:DISL:MHPA:1,2017-12-07T15:30:00Z,30.6671,-87.9365,1.065,5.24,1111122 
DISL,ioos:station:DISL:MHPA:1,2017-12-07T16:30:00Z,30.6671,-87.9365,1.017,5.58,1111122 
DISL,ioos:station:DISL:MHPA:1,2017-12-07T17:30:00Z,30.6671,-87.9365,0.96,5.56,1111122 
DISL,ioos:station:DISL:MHPA:1,2017-12-07T18:30:00Z,30.6671,-87.9365,0.911,5.95,1111122 
DISL,ioos:station:DISL:MHPA:1,2017-12-07T19:30:00Z,30.6671,-87.9365,0.879,5.75,1111122 
DISL,ioos:station:DISL:MHPA:1,2017-12-07T20:00:00Z,30.6671,-87.9365,0.863,5.61,1111122 
DISL,ioos:station:DISL:MHPA:1,2017-12-07T22:30:00Z,30.6671,-87.9365,0.856,4.79,1111122 
DISL,ioos:station:DISL:MHPA:1,2017-12-07T23:30:00Z,30.6671,-87.9365,0.834,5.24,1111122 
DISL,ioos:station:DISL:MHPA:1,2017-12-08T00:30:00Z,30.6671,-87.9365,0.908,5.45,1111122 
DISL,ioos:station:DISL:MHPA:1,2017-12-08T01:30:00Z,30.6671,-87.9365,1.024,4.7,1111122 
DISL,ioos:station:DISL:MHPA:1,2017-12-08T02:30:00Z,30.6671,-87.9365,1.065,6.98,1111122 
DISL,ioos:station:DISL:MHPA:1,2017-12-08T03:30:00Z,30.6671,-87.9365,1.113,6.74,1111122 
DISL,ioos:station:DISL:MHPA:1,2017-12-08T04:30:00Z,30.6671,-87.9365,1.22,7.57,1111122 
DISL,ioos:station:DISL:MHPA:1,2017-12-08T05:30:00Z,30.6671,-87.9365,1.361,8.71,1111122 
DISL,ioos:station:DISL:MHPA:1,2017-12-08T06:30:00Z,30.6671,-87.9365,1.46,7.3,1111122 
DISL,ioos:station:DISL:MHPA:1,2017-12-08T07:30:00Z,30.6671,-87.9365,1.419,6.08,1111122 
DISL,ioos:station:DISL:MHPA:1,2017-12-08T08:30:00Z,30.6671,-87.9365,1.382,5.73,1111122 
DISL,ioos:station:DISL:MHPA:1,2017-12-08T09:30:00Z,30.6671,-87.9365,1.367,5.69,1111122 
DISL,ioos:station:DISL:MHPA:1,2017-12-08T10:30:00Z,30.6671,-87.9365,1.346,5.74,1111122 
DISL,ioos:station:DISL:MHPA:1,2017-12-08T11:30:00Z,30.6671,-87.9365,1.335,5.17,1111122 
DISL,ioos:station:DISL:MHPA:1,2017-12-08T12:30:00Z,30.6671,-87.9365,1.267,5.94,1111122 
DISL,ioos:station:DISL:MHPA:1,2017-12-08T13:30:00Z,30.6671,-87.9365,1.19,5.76,1111122 
DISL,ioos:station:DISL:MHPA:1,2017-12-08T14:30:00Z,30.6671,-87.9365,1.114,6.03,1111122 
DISL,ioos:station:DISL:MHPA:1,2017-12-08T15:30:00Z,30.6671,-87.9365,1.062,7.11,1111122 
DISL,ioos:station:DISL:MHPA:1,2017-12-08T16:30:00Z,30.6671,-87.9365,1.006,7.06,1111122 
DISL,ioos:station:DISL:MHPA:1,2017-12-08T17:30:00Z,30.6671,-87.9365,0.948,5.6,1111122 
DISL,ioos:station:DISL:MHPA:1,2017-12-08T18:30:00Z,30.6671,-87.9365,0.925,5.97,1111122 
DISL,ioos:station:DISL:MHPA:1,2017-12-08T19:30:00Z,30.6671,-87.9365,0.881,6.36,1111122 
DISL,ioos:station:DISL:MHPA:1,2017-12-08T20:30:00Z,30.6671,-87.9365,0.86,6.71,1111122 
DISL,ioos:station:DISL:MHPA:1,2017-12-08T21:30:00Z,30.6671,-87.9365,0.861,5.72,1111122 
DISL,ioos:station:DISL:MHPA:1,2017-12-08T22:30:00Z,30.6671,-87.9365,0.938,7.49,1111122 
DISL,ioos:station:DISL:MHPA:1,2017-12-08T23:30:00Z,30.6671,-87.9365,1.005,6.31,1111122 
DISL,ioos:station:DISL:MHPA:1,2017-12-09T00:30:00Z,30.6671,-87.9365,1.034,6.84,1111122 
DISL,ioos:station:DISL:MHPA:1,2017-12-09T01:30:00Z,30.6671,-87.9365,1.176,7.26,1111122 
DISL,ioos:station:DISL:MHPA:1,2017-12-09T02:30:00Z,30.6671,-87.9365,1.273,6.95,1111122 
DISL,ioos:station:DISL:MHPA:1,2017-12-09T03:30:00Z,30.6671,-87.9365,1.316,6.51,1111122 
DISL,ioos:station:DISL:MHPA:1,2017-12-09T04:30:00Z,30.6671,-87.9365,1.452,7.61,1111122 
DISL,ioos:station:DISL:MHPA:1,2017-12-09T05:30:00Z,30.6671,-87.9365,1.519,6.79,1111122 
DISL,ioos:station:DISL:MHPA:1,2017-12-09T06:30:00Z,30.6671,-87.9365,1.587,7.15,1111122 
DISL,ioos:station:DISL:MHPA:1,2017-12-09T07:30:00Z,30.6671,-87.9365,1.629,9.72,1111122 
DISL,ioos:station:DISL:MHPA:1,2017-12-09T08:30:00Z,30.6671,-87.9365,1.693,10.65,1111122 
DISL,ioos:station:DISL:MHPA:1,2017-12-09T09:30:00Z,30.6671,-87.9365,1.71,10.42,1111122 
DISL,ioos:station:DISL:MHPA:1,2017-12-09T10:30:00Z,30.6671,-87.9365,1.686,10.5,1111122 
DISL,ioos:station:DISL:MHPA:1,2017-12-09T11:30:00Z,30.6671,-87.9365,1.669,10.65,1111122 
DISL,ioos:station:DISL:MHPA:1,2017-12-09T12:30:00Z,30.6671,-87.9365,1.641,10.23,1111122 
DISL,ioos:station:DISL:MHPA:1,2017-12-09T13:30:00Z,30.6671,-87.9365,1.578,9.71,1111122 
DISL,ioos:station:DISL:MHPA:1,2017-12-09T14:30:00Z,30.6671,-87.9365,1.511,9.82,1111122 
DISL,ioos:station:DISL:MHPA:1,2017-12-09T15:30:00Z,30.6671,-87.9365,1.45,10.05,1111122 
DISL,ioos:station:DISL:MHPA:1,2017-12-09T16:30:00Z,30.6671,-87.9365,1.379,10.51,1111122 
DISL,ioos:station:DISL:MHPA:1,2017-12-09T17:30:00Z,30.6671,-87.9365,1.328,10.74,1111122 
DISL,ioos:station:DISL:MHPA:1,2017-12-09T18:30:00Z,30.6671,-87.9365,1.233,8.66,1111122 
DISL,ioos:station:DISL:MHPA:1,2017-12-09T19:30:00Z,30.6671,-87.9365,1.181,9.19,1111122 
DISL,ioos:station:DISL:MHPA:1,2017-12-09T20:30:00Z,30.6671,-87.9365,1.191,8.72,1111122 
DISL,ioos:station:DISL:MHPA:1,2017-12-09T21:30:00Z,30.6671,-87.9365,1.193,8.99,1111122 
DISL,ioos:station:DISL:MHPA:1,2017-12-09T22:30:00Z,30.6671,-87.9365,1.215,11.07,1111122 
DISL,ioos:station:DISL:MHPA:1,2017-12-09T23:30:00Z,30.6671,-87.9365,1.257,9.62,1111122 
DISL,ioos:station:DISL:MHPA:1,2017-12-10T00:30:00Z,30.6671,-87.9365,1.293,10.53,1111122 
DISL,ioos:station:DISL:MHPA:1,2017-12-10T01:30:00Z,30.6671,-87.9365,1.385,8.63,1111122 
DISL,ioos:station:DISL:MHPA:1,2017-12-10T02:30:00Z,30.6671,-87.9365,1.45,11.55,1111122 
DISL,ioos:station:DISL:MHPA:1,2017-12-10T03:30:00Z,30.6671,-87.9365,1.493,11.27,1111122 
DISL,ioos:station:DISL:MHPA:1,2017-12-10T04:30:00Z,30.6671,-87.9365,1.53,9.61,1111122 
DISL,ioos:station:DISL:MHPA:1,2017-12-10T05:30:00Z,30.6671,-87.9365,1.511,10.09,1111122 
DISL,ioos:station:DISL:MHPA:1,2017-12-10T06:30:00Z,30.6671,-87.9365,1.525,10.65,1111122 
DISL,ioos:station:DISL:MHPA:1,2017-12-10T07:30:00Z,30.6671,-87.9365,1.5,9.8,1111122 
DISL,ioos:station:DISL:MHPA:1,2017-12-10T08:30:00Z,30.6671,-87.9365,1.483,10.24,1111122 
DISL,ioos:station:DISL:MHPA:1,2017-12-10T09:30:00Z,30.6671,-87.9365,1.476,9.51,1111122 
DISL,ioos:station:DISL:MHPA:1,2017-12-10T10:30:00Z,30.6671,-87.9365,1.481,9.63,1111122 
DISL,ioos:station:DISL:MHPA:1,2017-12-10T11:30:00Z,30.6671,-87.9365,1.438,9.34,1111122 
DISL,ioos:station:DISL:MHPA:1,2017-12-10T12:30:00Z,30.6671,-87.9365,1.385,9.81,1111122 
DISL,ioos:station:DISL:MHPA:1,2017-12-10T13:30:00Z,30.6671,-87.9365,1.375,9.2,1111122 
DISL,ioos:station:DISL:MHPA:1,2017-12-10T14:30:00Z,30.6671,-87.9365,1.378,9.89,1111122 
DISL,ioos:station:DISL:MHPA:1,2017-12-10T15:30:00Z,30.6671,-87.9365,1.365,10.2,1111122 
DISL,ioos:station:DISL:MHPA:1,2017-12-10T16:30:00Z,30.6671,-87.9365,1.341,9.36,1111122 
DISL,ioos:station:DISL:MHPA:1,2017-12-10T17:30:00Z,30.6671,-87.9365,1.289,9.28,1111122 
DISL,ioos:station:DISL:MHPA:1,2017-12-10T18:30:00Z,30.6671,-87.9365,1.258,8.9,1111122 
DISL,ioos:station:DISL:MHPA:1,2017-12-10T19:30:00Z,30.6671,-87.9365,1.231,7.97,1111122 
DISL,ioos:station:DISL:MHPA:1,2017-12-10T20:30:00Z,30.6671,-87.9365,1.245,9.62,1111122 
DISL,ioos:station:DISL:MHPA:1,2017-12-10T21:30:00Z,30.6671,-87.9365,1.298,9.48,1111122 
DISL,ioos:station:DISL:MHPA:1,2017-12-10T22:30:00Z,30.6671,-87.9365,1.324,10.99,1111122 
DISL,ioos:station:DISL:MHPA:1,2017-12-10T23:30:00Z,30.6671,-87.9365,1.381,11.36,1111122 
DISL,ioos:station:DISL:MHPA:1,2017-12-11T00:30:00Z,30.6671,-87.9365,1.427,8.37,1111122 
DISL,ioos:station:DISL:MHPA:1,2017-12-11T01:30:00Z,30.6671,-87.9365,1.461,8.07,1111122 
DISL,ioos:station:DISL:MHPA:1,2017-12-11T02:30:00Z,30.6671,-87.9365,1.48,7.11,1111122 
DISL,ioos:station:DISL:MHPA:1,2017-12-11T03:30:00Z,30.6671,-87.9365,1.53,8.62,1111122 
DISL,ioos:station:DISL:MHPA:1,2017-12-11T04:30:00Z,30.6671,-87.9365,1.519,7.55,1111122 
DISL,ioos:station:DISL:MHPA:1,2017-12-11T05:30:00Z,30.6671,-87.9365,1.503,6.88,1111122 
DISL,ioos:station:DISL:MHPA:1,2017-12-11T06:30:00Z,30.6671,-87.9365,1.472,8.16,1111122 
DISL,ioos:station:DISL:MHPA:1,2017-12-11T07:30:00Z,30.6671,-87.9365,1.431,5.93,1111122 
DISL,ioos:station:DISL:MHPA:1,2017-12-11T08:30:00Z,30.6671,-87.9365,1.396,6.9,1111122 
DISL,ioos:station:DISL:MHPA:1,2017-12-11T09:30:00Z,30.6671,-87.9365,1.351,8.2,1111122 
DISL,ioos:station:DISL:MHPA:1,2017-12-11T10:30:00Z,30.6671,-87.9365,1.33,7.51,1111122 
DISL,ioos:station:DISL:MHPA:1,2017-12-11T11:30:00Z,30.6671,-87.9365,1.292,7.79,1111122 
DISL,ioos:station:DISL:MHPA:1,2017-12-11T12:30:00Z,30.6671,-87.9365,1.288,7.69,1111122 
DISL,ioos:station:DISL:MHPA:1,2017-12-11T13:30:00Z,30.6671,-87.9365,1.312,7.63,1111122 
DISL,ioos:station:DISL:MHPA:1,2017-12-11T14:30:00Z,30.6671,-87.9365,1.308,6.79,1111122 
DISL,ioos:station:DISL:MHPA:1,2017-12-11T15:30:00Z,30.6671,-87.9365,1.33,7.34,1111122 
DISL,ioos:station:DISL:MHPA:1,2017-12-11T16:30:00Z,30.6671,-87.9365,1.304,7.32,1111122 
DISL,ioos:station:DISL:MHPA:1,2017-12-11T17:30:00Z,30.6671,-87.9365,1.32,7.48,1111122 
DISL,ioos:station:DISL:MHPA:1,2017-12-11T18:30:00Z,30.6671,-87.9365,1.328,9.85,1111122 
DISL,ioos:station:DISL:MHPA:1,2017-12-11T19:30:00Z,30.6671,-87.9365,1.31,10.32,1111122 
DISL,ioos:station:DISL:MHPA:1,2017-12-11T20:30:00Z,30.6671,-87.9365,1.301,10.9,1111122 
DISL,ioos:station:DISL:MHPA:1,2017-12-11T21:30:00Z,30.6671,-87.9365,1.349,10.79,1111122 
DISL,ioos:station:DISL:MHPA:1,2017-12-11T22:30:00Z,30.6671,-87.9365,0.97,10.95,1111122 
DISL,ioos:station:DISL:MHPA:1,2017-12-11T23:30:00Z,30.6671,-87.9365,0.999,10.89,1111122 
DISL,ioos:station:DISL:MHPA:1,2017-12-12T00:30:00Z,30.6671,-87.9365,1.018,10.85,1111122 
DISL,ioos:station:DISL:MHPA:1,2017-12-12T01:30:00Z,30.6671,-87.9365,1.04,10.64,1111122 
DISL,ioos:station:DISL:MHPA:1,2017-12-12T02:30:00Z,30.6671,-87.9365,1.089,10.47,1111122 
DISL,ioos:station:DISL:MHPA:1,2017-12-12T03:30:00Z,30.6671,-87.9365,1.116,9.79,1111122 
DISL,ioos:station:DISL:MHPA:1,2017-12-12T04:30:00Z,30.6671,-87.9365,1.161,9.7,1111122 
DISL,ioos:station:DISL:MHPA:1,2017-12-12T05:30:00Z,30.6671,-87.9365,1.136,9.92,1111122 
DISL,ioos:station:DISL:MHPA:1,2017-12-12T06:30:00Z,30.6671,-87.9365,1.115,10.04,1111122 
DISL,ioos:station:DISL:MHPA:1,2017-12-12T07:30:00Z,30.6671,-87.9365,1.076,9.93,1111122 